When you browse on this site, cookies collect data to enhance your experience and personalize the content and advertising you see.
Visit our Privacy Policy to learn more. By continuing to use the site, you agree to this use of cookies and data.
  • Em Portugal
  • Lista de países
  • Para 7 dias
  • Temperatura da água
  • Mapas de satélite
  • Mapa do tempo
  • Widgets de tempo
  • user-avatar
    Iniciar Sessão

    Previsão horária em Bolshoe Ivanovo

    Hoje, 18 Fevereiro, Segunda-feira

    Tempo Temperatura Precipitação Vento Pressão Humidade
    00:00 -4°C° 0 mm 3 m/s 757 mmHg 85%
    01:00 -4°C° 0 mm 3 m/s 757 mmHg 86%
    02:00 -4°C° 0 mm 2 m/s 758 mmHg 91%
    03:00 -5°C° 0 mm 2 m/s 758 mmHg 92%
    04:00 -5°C° 0 mm 2 m/s 759 mmHg 93%
    05:00 -6°C° 0 mm 2 m/s 759 mmHg 94%
    06:00 -4°C° 0 mm 1 m/s 759 mmHg 93%
    07:00 -4°C° 0 mm 1 m/s 760 mmHg 93%
    08:00 -6°C° 0 mm 2 m/s 760 mmHg 91%
    09:00 -3°C° 0 mm 1 m/s 760 mmHg 84%
    10:00 -2°C° 0 mm 1 m/s 761 mmHg 78%
    11:00 0°C° 0 mm 1 m/s 761 mmHg 72%
    12:00 0°C° 0 mm 1 m/s 761 mmHg 68%
    13:00 +1°C° 0 mm 1 m/s 761 mmHg 65%
    14:00 +1°C° 0 mm 1 m/s 761 mmHg 61%
    15:00 0°C° 0 mm 1 m/s 760 mmHg 66%
    16:00 0°C° 0 mm 1 m/s 760 mmHg 71%
    17:00 -1°C° 0 mm 1 m/s 760 mmHg 75%
    18:00 -3°C° 0 mm 2 m/s 759 mmHg 75%
    19:00 -4°C° 0 mm 2 m/s 759 mmHg 75%
    20:00 -4°C° 0 mm 2 m/s 759 mmHg 75%
    21:00 -5°C° 0 mm 3 m/s 758 mmHg 73%
    22:00 -4°C° 0 mm 3 m/s 758 mmHg 71%
    23:00 -4°C° 0 mm 4 m/s 758 mmHg 69%

    Amanhã, 19 Fevereiro, Terça-feira

    Tempo Temperatura Precipitação Vento Pressão Humidade
    00:00 -4°C° 0 mm 4 m/s 757 mmHg 69%
    01:00 -4°C° 0 mm 4 m/s 757 mmHg 69%
    02:00 -3°C° 0 mm 4 m/s 756 mmHg 69%
    03:00 -4°C° 0 mm 5 m/s 755 mmHg 73%
    04:00 -4°C° 0 mm 5 m/s 755 mmHg 77%
    05:00 -4°C° 0 mm 5 m/s 754 mmHg 81%
    06:00 -2°C° 0 mm 5 m/s 754 mmHg 83%
    07:00 -2°C° 0 mm 5 m/s 753 mmHg 84%
    08:00 -2°C° 0 mm 5 m/s 753 mmHg 86%
    09:00 -1°C° 0 mm 5 m/s 752 mmHg 85%
    10:00 -1°C° 0 mm 5 m/s 752 mmHg 84%
    11:00 0°C° 0 mm 5 m/s 751 mmHg 84%
    12:00 0°C° 0 mm 5 m/s 750 mmHg 84%
    13:00 +1°C° 0 mm 5 m/s 750 mmHg 84%
    14:00 +1°C° 0 mm 5 m/s 749 mmHg 84%
    15:00 +1°C° 0 mm 4 m/s 748 mmHg 85%
    16:00 0°C° 0 mm 4 m/s 748 mmHg 86%
    17:00 0°C° 0 mm 4 m/s 747 mmHg 87%
    18:00 0°C° 0 mm 4 m/s 746 mmHg 88%
    19:00 0°C° 0 mm 5 m/s 746 mmHg 88%
    20:00 0°C° 0 mm 5 m/s 745 mmHg 89%
    21:00 0°C° 0 mm 5 m/s 744 mmHg 88%
    22:00 +1°C° 0 mm 5 m/s 744 mmHg 88%
    23:00 +1°C° 0 mm 5 m/s 743 mmHg 87%

    Depois de amanhã, 20 Fevereiro, Quarta-feira

    Tempo Temperatura Precipitação Vento Pressão Humidade
    00:00 +1°C° 0.3 mm 5 m/s 743 mmHg 88%
    01:00 +1°C° 0.3 mm 5 m/s 743 mmHg 89%
    02:00 +1°C° 0.3 mm 5 m/s 743 mmHg 90%
    03:00 +1°C° 0 mm 5 m/s 743 mmHg 90%
    04:00 +1°C° 0 mm 5 m/s 742 mmHg 90%
    05:00 +1°C° 0 mm 5 m/s 742 mmHg 91%
    06:00 +1°C° 0.1 mm 5 m/s 742 mmHg 90%
    07:00 +1°C° 0.1 mm 5 m/s 742 mmHg 90%
    08:00 +1°C° 0.1 mm 5 m/s 742 mmHg 90%
    09:00 +1°C° 0.1 mm 5 m/s 742 mmHg 88%
    10:00 +1°C° 0.1 mm 5 m/s 742 mmHg 86%
    11:00 +1°C° 0.1 mm 5 m/s 742 mmHg 84%
    12:00 +1°C° 0 mm 5 m/s 742 mmHg 83%
    13:00 +1°C° 0 mm 5 m/s 742 mmHg 83%
    14:00 +1°C° 0 mm 5 m/s 742 mmHg 82%
    15:00 +1°C° 0.1 mm 5 m/s 742 mmHg 83%
    16:00 +1°C° 0.1 mm 5 m/s 742 mmHg 83%
    17:00 0°C° 0.1 mm 5 m/s 742 mmHg 84%
    18:00 0°C° 0.2 mm 5 m/s 742 mmHg 80%
    19:00 -2°C° 0.2 mm 6 m/s 743 mmHg 77%
    20:00 -2°C° 0.2 mm 6 m/s 743 mmHg 74%
    21:00 -3°C° 0.1 mm 6 m/s 744 mmHg 76%
    22:00 -3°C° 0.1 mm 6 m/s 744 mmHg 78%
    23:00 -4°C° 0.1 mm 6 m/s 745 mmHg 80%

    21 Fevereiro, Quinta-feira

    Tempo Temperatura Precipitação Vento Pressão Humidade
    00:00 -4°C° 0.1 mm 6 m/s 745 mmHg 78%
    01:00 -4°C° 0.1 mm 6 m/s 746 mmHg 77%
    02:00 -5°C° 0.1 mm 6 m/s 747 mmHg 76%
    03:00 -5°C° 0.1 mm 6 m/s 747 mmHg 75%
    04:00 -5°C° 0.1 mm 6 m/s 748 mmHg 73%
    05:00 -5°C° 0.1 mm 6 m/s 748 mmHg 71%
    06:00 -6°C° 0 mm 6 m/s 749 mmHg 70%
    07:00 -8°C° 0 mm 6 m/s 750 mmHg 69%
    08:00 -7°C° 0 mm 5 m/s 751 mmHg 67%
    09:00 -7°C° 0 mm 5 m/s 751 mmHg 66%
    10:00 -7°C° 0 mm 5 m/s 752 mmHg 64%
    11:00 -7°C° 0 mm 5 m/s 753 mmHg 62%
    12:00 -7°C° 0 mm 5 m/s 753 mmHg 61%
    13:00 -7°C° 0 mm 5 m/s 754 mmHg 60%
    14:00 -7°C° 0 mm 4 m/s 755 mmHg 59%
    15:00 -7°C° 0 mm 4 m/s 755 mmHg 60%
    16:00 -7°C° 0 mm 4 m/s 756 mmHg 61%
    17:00 -8°C° 0 mm 4 m/s 757 mmHg 63%
    18:00 -8°C° 0 mm 4 m/s 758 mmHg 63%
    19:00 -9°C° 0 mm 4 m/s 759 mmHg 64%
    20:00 -9°C° 0 mm 4 m/s 759 mmHg 65%
    21:00 -9°C° 0 mm 4 m/s 760 mmHg 66%
    22:00 -10°C° 0 mm 4 m/s 761 mmHg 66%
    23:00 -9°C° 0 mm 3 m/s 762 mmHg 67%

    22 Fevereiro, Sexta-feira

    Tempo Temperatura Precipitação Vento Pressão Humidade
    00:00 -9°C° 0 mm 3 m/s 762 mmHg 69%
    01:00 -9°C° 0 mm 3 m/s 763 mmHg 71%
    02:00 -9°C° 0 mm 2 m/s 764 mmHg 73%
    03:00 -10°C° 0 mm 3 m/s 765 mmHg 73%
    04:00 -10°C° 0 mm 3 m/s 765 mmHg 74%
    05:00 -10°C° 0 mm 3 m/s 766 mmHg 74%
    06:00 -10°C° 0 mm 3 m/s 767 mmHg 72%
    07:00 -10°C° 0 mm 3 m/s 767 mmHg 71%
    08:00 -10°C° 0 mm 3 m/s 768 mmHg 70%
    09:00 -9°C° 0 mm 3 m/s 768 mmHg 65%
    10:00 -8°C° 0 mm 3 m/s 769 mmHg 60%
    11:00 -6°C° 0 mm 3 m/s 769 mmHg 55%
    12:00 -6°C° 0 mm 3 m/s 769 mmHg 52%
    13:00 -5°C° 0 mm 4 m/s 770 mmHg 49%
    14:00 -4°C° 0 mm 4 m/s 770 mmHg 46%
    15:00 -5°C° 0 mm 4 m/s 770 mmHg 50%
    16:00 -5°C° 0 mm 3 m/s 770 mmHg 54%
    17:00 -6°C° 0 mm 3 m/s 770 mmHg 58%
    18:00 -7°C° 0 mm 3 m/s 771 mmHg 61%
    19:00 -7°C° 0 mm 3 m/s 771 mmHg 65%
    20:00 -7°C° 0 mm 2 m/s 771 mmHg 68%
    21:00 -7°C° 0 mm 2 m/s 771 mmHg 72%
    22:00 -6°C° 0 mm 1 m/s 771 mmHg 75%
    23:00 -7°C° 0 mm 1 m/s 771 mmHg 78%

    23 Fevereiro, Sábado

    Tempo Temperatura Precipitação Vento Pressão Humidade
    00:00 -7°C° 0 mm 1 m/s 770 mmHg 78%
    01:00 -7°C° 0 mm 1 m/s 770 mmHg 78%
    02:00 -7°C° 0 mm 1 m/s 769 mmHg 78%
    03:00 -7°C° 0 mm 2 m/s 768 mmHg 74%
    04:00 -7°C° 0 mm 2 m/s 767 mmHg 70%
    05:00 -7°C° 0 mm 3 m/s 767 mmHg 65%
    06:00 -7°C° 0.6 mm 3 m/s 766 mmHg 75%
    07:00 -7°C° 0.6 mm 3 m/s 765 mmHg 84%
    08:00 -8°C° 0.6 mm 3 m/s 764 mmHg 93%
    09:00 -7°C° 0.3 mm 3 m/s 763 mmHg 90%
    10:00 -7°C° 0.3 mm 4 m/s 762 mmHg 88%
    11:00 -7°C° 0.3 mm 4 m/s 761 mmHg 85%
    12:00 -5°C° 0.5 mm 3 m/s 761 mmHg 88%
    13:00 -5°C° 0.5 mm 3 m/s 760 mmHg 90%
    14:00 -5°C° 0.5 mm 3 m/s 759 mmHg 92%
    15:00 -4°C° 0.3 mm 2 m/s 759 mmHg 92%
    16:00 -3°C° 0.3 mm 2 m/s 759 mmHg 93%
    17:00 -3°C° 0.3 mm 2 m/s 759 mmHg 93%
    18:00 -3°C° 0 mm 2 m/s 759 mmHg 94%
    19:00 -2°C° 0 mm 2 m/s 759 mmHg 95%
    20:00 0°C° 0 mm 1 m/s 759 mmHg 96%
    21:00 0°C° 0 mm 1 m/s 759 mmHg 96%
    22:00 +1°C° 0 mm 1 m/s 759 mmHg 97%
    23:00 +1°C° 0 mm 1 m/s 759 mmHg 97%
    Mostrar mais